Regional Weather Roundup
Issued by NWS Sterling, VA

Current Version | Previous Version | Text Only | Print | Product List | Glossary On
Versions: 1 2 3 4 5 6 7 8 9 10 11 12 13 14 15 16 17 18 19 20 21 22 23 24 25 26 27 28 29 30 31 32 33 34 35 36 37 38 39 40 41 42 43 44 45 46 47 48 49 50
000
ASUS41 KLWX 210810
RWRLWX

REGIONAL WEATHER ROUNDUP
NATIONAL WEATHER SERVICE BALTIMORE MD/WASHINGTON DC
300 AM EST FRI NOV 21 2014

Note: "FAIR" indicates few or no clouds below 12,000 feet
with no significant weather and/or obstructions to visibility.
 TC=TEMPERATURE CELSIUS

 * =Non NWS site. Station does not report precipitation (e.g. rain,
    snow, etc.), thunder, or fog.

DCZ001-MDZ009-015-VAZ040>042-051-053>054-210900-
WASHINGTON METRO

CITY           SKY/WX    TMP DP  RH WIND       PRES   REMARKS
WASHINGTON NAT CLEAR     34  11  38 NW16G23   30.22R WCI  24
DULLES         MOCLDY    29  13  51 NW9       30.22R WCI  20
ANDREWS AFB    CLEAR     32  11  41 NW20G25   30.18R WCI  20
FT BELVOIR     CLEAR     32  10  40 NW15G23   30.21R WCI  22
QUANTICO       CLEAR     33   8  35 NW5       30.23R
COLLEGE PARK*  CLEAR     32  12  43 NW6       30.21R
LEESBURG*      CLOUDY    32  18  55 NW9G18    30.22R WCI  24
MANASSAS*      PTCLDY    30  14  51 NW10      30.23R WCI  21
GAITHERSBURG*  CLOUDY    28  10  47 W7        30.23R

$$

MDZ006>007-011-014-210900-
BALTIMORE METRO

CITY           SKY/WX    TMP DP  RH WIND       PRES   REMARKS
BWI AIRPORT    PTCLDY    30  10  43 W8        30.21R WCI  22
MD SCIENCE CTR   N/A     32   7  35 MISG      30.20R
MARTIN STATE   CLEAR     32  12  43 W14G22    30.23R WCI  22
ANNAPOLIS      CLEAR     34  15  46 NW16      30.19R WCI  24
FORT MEADE*    CLEAR     30  12  47 NW7       30.24R

$$

MDZ012-015-019>023-210900-
MARYLAND EASTERN SHORE

CITY           SKY/WX    TMP DP  RH WIND       PRES   REMARKS
OCEAN CITY     CLEAR     31  14  49 NW8       30.17R WCI  23
SALISBURY      CLEAR     33  15  47 CALM      30.18R
BAY BRIDGE AP*   N/A     32  14  47 NW17G24   30.20R WCI  21
CAMBRIDGE*     CLEAR     36  14  41 NW15G21   30.18R WCI  26
EASTON*        CLEAR     34  16  49 N12G20    30.22R WCI  25

$$

MDZ017>025-210900-
SOUTHERN MARYLAND

CITY           SKY/WX    TMP DP  RH WIND       PRES   REMARKS
PATUXENT RIVER CLEAR     34  11  38 NW16      30.20R WCI  24
ST INIGOES     CLEAR     35   9  33 NW8       30.20R WCI  29
LEONARDTOWN*   CLEAR     32   9  37 NW6       30.21R

$$

MDZ003>005-210900-
NORTH CENTRAL MARYLAND

CITY           SKY/WX    TMP DP  RH WIND       PRES   REMARKS
FREDERICK*     CLOUDY    34   9  35 NW9G16    30.24R WCI  26
HAGERSTOWN APT CLEAR     27   7  42 W15       30.18R WCI  15
WESTMINSTER*   PTCLDY    27   9  46 W8        30.16R WCI  18

$$

MDZ501>502-210900-
WESTERN MARYLAND

CITY           SKY/WX    TMP DP  RH WIND       PRES   REMARKS
OAKLAND*       CLOUDY    16   9  73 W15G25    30.06R WCI   1
CUMBERLAND*    PTCLDY    28   9  43 W10G21    30.25R WCI  19

$$

VAZ025>031-210900-
SHENANDOAH VALLEY

CITY           SKY/WX    TMP DP  RH WIND       PRES   REMARKS
WINCHESTER*    CLOUDY    32   9  37 W18       30.20R WCI  20
FRONT ROYAL*   CLOUDY    32  10  40 W6G18     30.20R
LURAY*         CLOUDY    32  14  47 W7        30.19R
NEW MARKET*    CLOUDY    29  10  45 W5        30.19R
STAUNTON*      CLEAR     26   9  50 CALM      30.20R
WAYNESBORO*    FAIR      27   7  42 NW5       30.15R

$$

WVZ021-048>050-054>055-210900-
EASTERN WEST VIRGINIA PANHANDLE

CITY           SKY/WX    TMP DP  RH WIND       PRES   REMARKS
MARTINSBURG    MOCLDY    30   6  36 NW14G22   30.20R WCI  19
PETERSBURG*    CLOUDY    29   8  40 W13G22    30.22R WCI  19

$$

VAZ036>039-050-210900-
CENTRAL FOOTHILLS

CITY           SKY/WX    TMP DP  RH WIND       PRES   REMARKS
CHARLOTTESVILL CLEAR     32   8  36 NW7       30.20R
CULPEPER*      CLEAR     34  10  37 NW8       30.21R WCI  27
ORANGE*        CLEAR     32  12  43 CALM      30.22R
GORDONSVILLE*  FAIR      33   8  34 NW8       30.20R WCI  26
WARRENTON*     FAIR      32  18  55 N7        30.21R

$$

VAZ055>057-210900-
NORTH AND CENTRAL PIEDMONT

CITY           SKY/WX    TMP DP  RH WIND       PRES   REMARKS
FREDERICKSBRG* CLEAR     33  13  43 NW5       30.21R
STAFFORD*      CLEAR     29   8  40 CALM      30.25R

$$

NCZ024-NYZ072-PAZ021-071-VAZ022-071-210900-
OTHER REGIONAL OBSERVATIONS

CITY           SKY/WX    TMP DP  RH WIND       PRES   REMARKS
NEW YORK CITY  CLEAR     30   8  39 MISG      30.10R
PHILADELPHIA   CLEAR     31   7  36 W14       30.16R WCI  21
PITTSBURGH     CLEAR     19  13  77 W6        30.19R
ROANOKE        CLEAR     33  13  43 NW14      30.22R WCI  23
RICHMOND       CLEAR     38  14  37 NW3       30.20R
RALEIGH        CLEAR     31  26  82 CALM      30.21R

$$

ANZ530>537-210900-
MARINE OBSERVATIONS

STATION/POSITION TIME  TEMP    WIND        PRES
                       AIR SEA DIR/SP/G
                 (UTC) (F)     (DEG/KT/KT) (MB)
THOMAS PT LIGHT  0800   33 47  320/ 19/ 22 1023.4R
BALT KEY BRIDGE  0800   33     280/ 21/ 26 1022.0R
COVE POINT       0800   35     350/ 20/ 26 1022.2R
LEWISETTA        0800   37 46  340/ 12/ 18 1022.4R
SOLOMONS ISLAND  0800      49                N/A
PINEY POINT      0800           10/ 12/ 17   N/A

$$



USA.gov is the U.S. government's official web portal to all federal, state and local government web resources and services.